This is the latest recevied weather packets stored in our database for station/object W4SNA-2. If no packets are shown the sender has not sent any weather packets the latest 10 day(s).
| Time | Temp. | Humidity | Pressure | Rain* | Wind** | Luminosity | Snow |
|---|---|---|---|---|---|---|---|
| 1777734637 | 7.78° C | 65% | 1015.3 hPa | 0 mm | - | - | - |
| 1777734337 | 7.78° C | 63% | 1015.2 hPa | 0 mm | - | - | - |
| 1777734037 | 7.78° C | 62% | 1015.3 hPa | 0 mm | - | - | - |
| 1777733738 | 7.78° C | 63% | 1015.3 hPa | 0 mm | - | - | - |
| 1777733437 | 7.78° C | 64% | 1015.3 hPa | 0 mm | - | - | - |
| 1777733137 | 7.78° C | 64% | 1015.2 hPa | 0 mm | - | - | - |
| 1777732837 | 7.78° C | 64% | 1014.9 hPa | 0 mm | - | - | - |
| 1777732537 | 8.33° C | 64% | 1014.9 hPa | 0 mm | - | - | - |
| 1777732237 | 7.78° C | 68% | 1014.7 hPa | 0 mm | - | - | - |
| 1777731938 | 7.78° C | 65% | 1014.5 hPa | 0 mm | - | - | - |
| 1777731637 | 7.78° C | 67% | 1014.8 hPa | 0 mm | - | - | - |
| 1777731337 | 7.78° C | 69% | 1015 hPa | 0 mm | - | - | - |
| 1777731037 | 7.78° C | 69% | 1014.9 hPa | 0 mm | - | - | - |
| 1777730738 | 7.78° C | 69% | 1015.1 hPa | 0 mm | - | - | - |
| 1777729793 | 7.78° C | 71% | 1014.7 hPa | 0 mm | - | - | - |
| 1777729412 | 7.22° C | 69% | 1014.4 hPa | 0 mm | - | - | - |
| 1777729112 | 7.22° C | 69% | 1014.4 hPa | 0 mm | - | - | - |
| 1777728812 | 7.22° C | 69% | 1014.4 hPa | 0 mm | - | - | - |
| 1777728512 | 7.22° C | 70% | 1014.4 hPa | 0 mm | - | - | - |
| 1777728212 | 7.78° C | 70% | 1014.7 hPa | 0 mm | - | - | - |
| 1777727917 | 7.78° C | 68% | 1014.8 hPa | 0 mm | - | - | - |
| 1777727612 | 7.78° C | 69% | 1014.7 hPa | 0 mm | - | - | - |
| 1777727312 | 7.78° C | 69% | 1014.6 hPa | 0 mm | - | - | - |
| 1777727014 | 7.78° C | 70% | 1014.4 hPa | 0 mm | - | - | - |
| 1777726715 | 7.78° C | 75% | 1014.4 hPa | 0 mm | - | - | - |
* Rain latest hour (hover to see other rain measurements)
** Current wind speed in m/s (hover to see current wind gust speed)